Menomonie, WI

9:55 AM CDT on June 29, 2017 (GMT -0500)
Menomonie

Weather History for KLUM - January, 2013

Change the Weather History Date:

Friday, January 4, 2013

  Actual Average (KEAU) Record (KEAU)
Temperature  
Mean Temperature 22 °F -  
Max Temperature 32 °F 20 °F 44 °F (2007)
Min Temperature 8 °F 0 °F -30 °F (1919)
Degree Days  
Heating Degree Days 43    
Moisture  
Dew Point 13 °F    
Average Humidity 72    
Maximum Humidity 86    
Minimum Humidity 55    
Precipitation  
Precipitation 0.00 in - - ()
Sea Level Pressure  
Sea Level Pressure 30.07 in    
Wind  
Wind Speed 6 mph (SW)    
Max Wind Speed 12 mph    
Max Gust Speed -    
Visibility 10 miles    
Events      
Averages and records for this station are not official NWS values.
T = Trace of Precipitation, MM = Missing Value Source: NWS Daily Summary

Daily Weather History Graph

Daily Weather History Graph

Search for Another Location

Airport or City:

Trip Planner

Search our weather history database for the weather conditions in past years. The results will help you decide how hot, cold, wet, or windy it might be!

Date:

Astronomy

Jan. 04, 2013 Rise Set
Actual Time 7:45 AM CST 4:40 PM CST
Civil Twilight 7:11 AM CST 5:13 PM CST
Nautical Twilight 6:35 AM CST 5:50 PM CST
Astronomical Twilight 5:59 AM CST 6:25 PM CST
Moon No Moon Rise 11:08 AM CST (1/4)
Length of Visible Light 10h 01m
Length of Day
8h 54m
Waning Gibbous, 55% of the Moon is Illuminated
Jan 4
Waning Gibbous
Jan 4
Last Quarter
Jan 11
New
Jan 18
First Quarter
Jan 26
Full

Hourly Weather History & Observations

Time (CST) Temp. Windchill Dew Point Humidity Pressure Visibility Wind Dir Wind Speed Gust Speed Precip Events Conditions
12:15 AM 12.2 °F 2.9 °F 8.6 °F 85% 30.08 in 10.0 mi SW 5.8 mph - N/A   Clear
12:35 AM 14.0 °F 3.9 °F 10.4 °F 86% 30.06 in 10.0 mi SSW 6.9 mph - N/A   Clear
12:55 AM 14.0 °F 2.0 °F 10.4 °F 86% 30.05 in 10.0 mi SSW 9.2 mph - N/A   Clear
1:15 AM 14.0 °F 3.9 °F 10.4 °F 86% 30.04 in 10.0 mi SW 6.9 mph - N/A   Clear
1:35 AM 14.0 °F 2.0 °F 10.4 °F 86% 30.03 in 10.0 mi SW 9.2 mph - N/A   Clear
1:55 AM 15.8 °F 6.1 °F 10.4 °F 79% 30.03 in 10.0 mi SW 6.9 mph - N/A   Clear
2:15 AM 15.8 °F 6.1 °F 10.4 °F 79% 30.02 in 10.0 mi SSW 6.9 mph - N/A   Clear
2:35 AM 15.8 °F 7.2 °F 12.2 °F 86% 30.04 in 10.0 mi WSW 5.8 mph - N/A   Clear
2:55 AM 17.6 °F 5.0 °F 12.2 °F 79% 30.03 in 10.0 mi SW 11.5 mph - N/A   Clear
3:15 AM 17.6 °F 6.4 °F 12.2 °F 79% 30.02 in 10.0 mi SW 9.2 mph - N/A   Clear
5:55 AM 19.4 °F 8.6 °F 12.2 °F 74% 30.00 in 10.0 mi WSW 9.2 mph - N/A   Clear
6:15 AM 19.4 °F 10.4 °F 12.2 °F 74% 30.00 in 10.0 mi WSW 6.9 mph - N/A   Clear
7:15 AM 19.4 °F 11.5 °F 12.2 °F 74% 30.00 in 10.0 mi WSW 5.8 mph - N/A   Clear
7:55 AM 19.4 °F 11.5 °F 12.2 °F 74% 30.01 in 10.0 mi West 5.8 mph - N/A   Clear
8:15 AM 19.4 °F 11.5 °F 12.2 °F 74% 30.02 in 10.0 mi WSW 5.8 mph - N/A   Clear
8:35 AM 19.4 °F 11.5 °F 12.2 °F 74% 30.02 in 10.0 mi SW 5.8 mph - N/A   Clear
8:55 AM 19.4 °F 12.8 °F 12.2 °F 74% 30.03 in 10.0 mi SW 4.6 mph - N/A   Clear
9:15 AM 21.2 °F 11.7 °F 14.0 °F 74% 30.03 in 10.0 mi WSW 8.1 mph - N/A   Clear
9:35 AM 21.2 °F 13.6 °F 14.0 °F 74% 30.04 in 10.0 mi WSW 5.8 mph - N/A   Clear
9:55 AM 23.0 °F 15.8 °F 14.0 °F 68% 30.05 in 10.0 mi WSW 5.8 mph - N/A   Clear
10:15 AM 24.8 °F 16.1 °F 14.0 °F 64% 30.06 in 10.0 mi WSW 8.1 mph - N/A   Clear
10:55 AM 26.6 °F 20.0 °F 14.0 °F 59% 30.06 in 10.0 mi WSW 5.8 mph - N/A   Clear
11:15 AM 26.6 °F 17.5 °F 14.0 °F 59% 30.06 in 10.0 mi West 9.2 mph - N/A   Clear
11:35 AM 28.4 °F 20.4 °F 14.0 °F 55% 30.06 in 10.0 mi West 8.1 mph - N/A   Clear
11:55 AM 28.4 °F 21.2 °F 14.0 °F 55% 30.06 in 10.0 mi West 6.9 mph - N/A   Clear
12:15 PM 28.4 °F 22.2 °F 15.8 °F 59% 30.06 in 10.0 mi West 5.8 mph - N/A   Clear
12:35 PM 30.2 °F 23.4 °F 15.8 °F 55% 30.05 in 10.0 mi SW 6.9 mph - N/A   Clear
12:55 PM 30.2 °F 22.6 °F 17.6 °F 60% 30.05 in 10.0 mi SW 8.1 mph - N/A   Clear
1:15 PM 30.2 °F 22.6 °F 15.8 °F 55% 30.05 in 10.0 mi WSW 8.1 mph - N/A   Clear
1:35 PM 30.2 °F 23.4 °F 17.6 °F 60% 30.05 in 10.0 mi WSW 6.9 mph - N/A   Clear
1:55 PM 30.2 °F 24.3 °F 15.8 °F 55% 30.06 in 10.0 mi West 5.8 mph - N/A   Clear
2:15 PM 32.0 °F 26.4 °F 17.6 °F 55% 30.05 in 10.0 mi SW 5.8 mph - N/A   Clear
2:35 PM 32.0 °F 26.4 °F 17.6 °F 55% 30.06 in 10.0 mi WSW 5.8 mph - N/A   Clear
2:55 PM 32.0 °F 27.5 °F 17.6 °F 55% 30.06 in 10.0 mi WSW 4.6 mph - N/A   Clear
3:15 PM 30.2 °F 25.4 °F 17.6 °F 60% 30.07 in 10.0 mi SW 4.6 mph - N/A   Clear
3:35 PM 30.2 °F 25.4 °F 17.6 °F 60% 30.08 in 10.0 mi SW 4.6 mph - N/A   Clear
3:55 PM 30.2 °F 23.4 °F 17.6 °F 60% 30.08 in 10.0 mi SW 6.9 mph - N/A   Clear
4:15 PM 30.2 °F 26.7 °F 17.6 °F 60% 30.08 in 10.0 mi WSW 3.5 mph - N/A   Clear
4:35 PM 30.2 °F 26.7 °F 17.6 °F 60% 30.09 in 10.0 mi SW 3.5 mph - N/A   Clear
4:55 PM 28.4 °F 23.3 °F 15.8 °F 59% 30.10 in 10.0 mi SW 4.6 mph - N/A   Clear
5:15 PM 26.6 °F 21.2 °F 15.8 °F 64% 30.10 in 10.0 mi SW 4.6 mph - N/A   Clear
5:35 PM 26.6 °F 20.0 °F 15.8 °F 64% 30.11 in 10.0 mi SW 5.8 mph - N/A   Clear
5:55 PM 26.6 °F 21.2 °F 15.8 °F 64% 30.11 in 10.0 mi SW 4.6 mph - N/A   Clear
6:15 PM 24.8 °F - 14.0 °F 64% 30.12 in 10.0 mi Calm Calm - N/A   Clear
6:35 PM 24.8 °F - 14.0 °F 64% 30.12 in 10.0 mi Calm Calm - N/A   Clear
6:55 PM 23.0 °F - 15.8 °F 74% 30.12 in 10.0 mi Calm Calm - N/A   Clear
7:15 PM 21.2 °F - 14.0 °F 74% 30.12 in 10.0 mi Calm Calm - N/A   Clear
7:35 PM 19.4 °F - 14.0 °F 80% 30.12 in 10.0 mi Calm Calm - N/A   Clear
7:55 PM 17.6 °F - 12.2 °F 79% 30.12 in 10.0 mi Calm Calm - N/A   Clear
8:15 PM 17.6 °F - 12.2 °F 79% 30.12 in 10.0 mi Calm Calm - N/A   Clear
8:35 PM 15.8 °F - 12.2 °F 86% 30.12 in 10.0 mi Calm Calm - N/A   Clear
8:55 PM 15.8 °F - 12.2 °F 86% 30.11 in 10.0 mi Calm Calm - N/A   Clear
9:15 PM 14.0 °F - 10.4 °F 86% 30.11 in 10.0 mi Calm Calm - N/A   Clear
9:35 PM 15.8 °F - 10.4 °F 79% 30.11 in 10.0 mi Calm Calm - N/A   Clear
9:55 PM 14.0 °F - 10.4 °F 86% 30.11 in 10.0 mi Calm Calm - N/A   Clear
10:15 PM 12.2 °F - 8.6 °F 85% 30.12 in 10.0 mi Calm Calm - N/A   Clear
10:35 PM 14.0 °F - 10.4 °F 86% 30.13 in 10.0 mi Calm Calm - N/A   Clear
10:55 PM 14.0 °F - 10.4 °F 86% 30.14 in 10.0 mi Calm Calm - N/A   Clear
11:15 PM 12.2 °F - 8.6 °F 85% 30.14 in 10.0 mi Calm Calm - N/A   Clear
11:35 PM 12.2 °F - 8.6 °F 85% 30.14 in 10.0 mi Calm Calm - N/A   Clear
11:55 PM 8.6 °F 0.1 °F 5.0 °F 85% 30.13 in 10.0 mi NE 4.6 mph - N/A   Clear